Location: Bletchingley
(51.2333°N, 0.1000°W)
Time: 12:49:16
(UTC+00:00)

Cosmos 1937 Rocket - Pass Details

Date: 18 September 2020
Orbit: 747 x 779 km, 74.0° (Epoch: 23 October)

Event Time Altitude Azimuth Distance (km) Brightness Sun altitude
Rises 18:54:10 0° 191° (S) 3,234 6.7 -8.2°
Reaches altitude 10° 18:56:34 10° 188° (S) 2,306 5.9 -8.5°
Maximum altitude 19:01:43 61° 109° (ESE) 866 3.5 -9.3°
Drops below altitude 10° 19:06:52 10° 30° (NNE) 2,302 5.8 -10.1°
Sets 19:09:15 0° 27° (NNE) 3,227 6.6 -10.4°
